Location: Unspecified
(0.0000°N, 0.0000°E)
Time: 17:46:08
(UTC+00:00)

Courier 1B Rocket - Pass Details

Date: 07 October 2020
Orbit: 921 x 1202 km, 28.2° (Epoch: 27 October)

Event Time Altitude Azimuth Distance (km) Brightness Sun altitude
Rises 02:38:25 0° 291° (WNW) 3,953 - -47.0°
Reaches altitude 10° 02:44:46 10° 331° (NNW) 2,899 - -45.5°
Maximum altitude 02:45:41 10° 339° (NNW) 2,865 - -45.2°
Drops below altitude 10° 02:46:37 10° 346° (NNW) 2,870 - -45.0°
Exits shadow 02:52:04 - 24° (NNE) 3,594 8.1 -43.7°
Sets 02:52:40 0° 27° (NNE) 3,726 8.2 -43.5°
